• In Netherlands
  • List of Countries
  • For 7 days
  • Water Temperature
  • Satellite Maps
  • Weather Map
  • Weather Widgets
  • user-avatar
    Login

    Hourly Weather Quito

    Today, 22 February, Wednesday

    Time Temperature Precipitation Wind Pressure Humidity
    00:00 +15°C° 0 mm 2 mps 621 mmHg 92%
    01:00 +15°C° 0 mm 2 mps 621 mmHg 93%
    02:00 +15°C° 0 mm 1 mps 621 mmHg 93%
    03:00 +14°C° 0 mm 1 mps 621 mmHg 93%
    04:00 +14°C° 0 mm 1 mps 620 mmHg 94%
    05:00 +14°C° 0 mm 1 mps 621 mmHg 91%
    06:00 +15°C° 0 mm 1 mps 621 mmHg 89%
    07:00 +16°C° 0 mm 1 mps 622 mmHg 87%
    08:00 +19°C° 0 mm 2 mps 623 mmHg 73%
    09:00 +23°C° 0 mm 2 mps 624 mmHg 60%
    10:00 +26°C° 0 mm 2 mps 625 mmHg 46%
    11:00 +27°C° 0 mm 3 mps 624 mmHg 43%
    12:00 +28°C° 0 mm 3 mps 624 mmHg 39%
    13:00 +29°C° 0 mm 3 mps 624 mmHg 35%
    14:00 +28°C° 0.2 mm 3 mps 623 mmHg 39%
    15:00 +28°C° 0.2 mm 3 mps 622 mmHg 43%
    16:00 +27°C° 0.2 mm 2 mps 622 mmHg 48%
    17:00 +25°C° 0.3 mm 2 mps 621 mmHg 58%
    18:00 +21°C° 0.3 mm 2 mps 621 mmHg 68%
    19:00 +18°C° 0.3 mm 2 mps 620 mmHg 79%
    20:00 +18°C° 0.1 mm 2 mps 621 mmHg 80%
    21:00 +17°C° 0.1 mm 2 mps 621 mmHg 82%
    22:00 +17°C° 0.1 mm 2 mps 622 mmHg 84%
    23:00 +16°C° 0 mm 2 mps 621 mmHg 85%

    Tomorrow, 23 February, Thursday

    Time Temperature Precipitation Wind Pressure Humidity
    00:00 +15°C° 0 mm 2 mps 621 mmHg 86%
    01:00 +15°C° 0 mm 2 mps 621 mmHg 87%
    02:00 +14°C° 0 mm 2 mps 621 mmHg 86%
    03:00 +14°C° 0 mm 2 mps 620 mmHg 86%
    04:00 +14°C° 0 mm 2 mps 620 mmHg 85%
    05:00 +14°C° 0 mm 2 mps 621 mmHg 84%
    06:00 +15°C° 0 mm 2 mps 621 mmHg 82%
    07:00 +15°C° 0 mm 1 mps 622 mmHg 81%
    08:00 +18°C° 0 mm 2 mps 623 mmHg 68%
    09:00 +23°C° 0 mm 2 mps 624 mmHg 54%
    10:00 +26°C° 0 mm 2 mps 625 mmHg 41%
    11:00 +27°C° 0 mm 2 mps 625 mmHg 37%
    12:00 +29°C° 0 mm 2 mps 624 mmHg 34%
    13:00 +30°C° 0 mm 1 mps 624 mmHg 30%
    14:00 +29°C° 0 mm 1 mps 623 mmHg 37%
    15:00 +28°C° 0 mm 1 mps 622 mmHg 44%
    16:00 +27°C° 0 mm 1 mps 622 mmHg 51%
    17:00 +25°C° 0 mm 1 mps 621 mmHg 53%
    18:00 +23°C° 0 mm 1 mps 621 mmHg 56%
    19:00 +21°C° 0 mm 1 mps 621 mmHg 58%
    20:00 +21°C° 0 mm 1 mps 621 mmHg 59%
    21:00 +20°C° 0 mm 2 mps 622 mmHg 59%
    22:00 +19°C° 0 mm 2 mps 623 mmHg 60%
    23:00 +18°C° 0 mm 2 mps 622 mmHg 64%

    Day after tomorrow, 24 February, Friday

    Time Temperature Precipitation Wind Pressure Humidity
    00:00 +17°C° 0 mm 2 mps 621 mmHg 68%
    01:00 +16°C° 0 mm 2 mps 621 mmHg 72%
    02:00 +15°C° 0 mm 2 mps 620 mmHg 73%
    03:00 +15°C° 0 mm 2 mps 620 mmHg 74%
    04:00 +14°C° 0 mm 2 mps 620 mmHg 74%
    05:00 +15°C° 0 mm 2 mps 620 mmHg 73%
    06:00 +16°C° 0 mm 2 mps 621 mmHg 72%
    07:00 +16°C° 0 mm 2 mps 622 mmHg 71%
    08:00 +19°C° 0 mm 2 mps 623 mmHg 60%
    09:00 +23°C° 0 mm 2 mps 624 mmHg 50%
    10:00 +27°C° 0 mm 2 mps 625 mmHg 39%
    11:00 +27°C° 0.1 mm 2 mps 624 mmHg 38%
    12:00 +28°C° 0.1 mm 2 mps 624 mmHg 37%
    13:00 +29°C° 0.1 mm 1 mps 624 mmHg 36%
    14:00 +29°C° 0.2 mm 1 mps 623 mmHg 38%
    15:00 +28°C° 0.2 mm 1 mps 622 mmHg 41%
    16:00 +27°C° 0.2 mm 1 mps 621 mmHg 43%
    17:00 +25°C° 0.2 mm 1 mps 621 mmHg 52%
    18:00 +22°C° 0.2 mm 1 mps 621 mmHg 61%
    19:00 +19°C° 0.2 mm 1 mps 620 mmHg 70%
    20:00 +19°C° 0.2 mm 1 mps 620 mmHg 73%
    21:00 +18°C° 0.2 mm 1 mps 621 mmHg 76%
    22:00 +16°C° 0.2 mm 1 mps 621 mmHg 78%
    23:00 +16°C° 0.1 mm 1 mps 621 mmHg 80%

    25 February, Saturday

    Time Temperature Precipitation Wind Pressure Humidity
    00:00 +16°C° 0.1 mm 1 mps 620 mmHg 82%
    01:00 +16°C° 0.1 mm 2 mps 620 mmHg 83%
    02:00 +16°C° 0 mm 2 mps 620 mmHg 85%
    03:00 +15°C° 0 mm 2 mps 620 mmHg 86%
    04:00 +15°C° 0 mm 2 mps 620 mmHg 87%
    05:00 +16°C° 0 mm 2 mps 620 mmHg 86%
    06:00 +16°C° 0 mm 2 mps 621 mmHg 84%
    07:00 +17°C° 0 mm 2 mps 622 mmHg 82%
    08:00 +19°C° 0 mm 1 mps 622 mmHg 75%
    09:00 +21°C° 0 mm 1 mps 623 mmHg 68%
    10:00 +23°C° 0 mm 1 mps 624 mmHg 61%
    11:00 +24°C° 0.2 mm 2 mps 623 mmHg 56%
    12:00 +26°C° 0.2 mm 2 mps 623 mmHg 51%
    13:00 +27°C° 0.2 mm 2 mps 623 mmHg 46%
    14:00 +27°C° 0.2 mm 2 mps 622 mmHg 49%
    15:00 +27°C° 0.2 mm 2 mps 622 mmHg 51%
    16:00 +26°C° 0.2 mm 1 mps 622 mmHg 54%
    17:00 +24°C° 0.3 mm 1 mps 621 mmHg 62%
    18:00 +22°C° 0.3 mm 1 mps 621 mmHg 70%
    19:00 +20°C° 0.3 mm 1 mps 621 mmHg 78%
    20:00 +19°C° 0.5 mm 1 mps 621 mmHg 80%
    21:00 +18°C° 0.5 mm 1 mps 621 mmHg 83%
    22:00 +17°C° 0.5 mm 2 mps 621 mmHg 85%
    23:00 +16°C° 0 mm 2 mps 621 mmHg 85%

    26 February, Sunday

    Time Temperature Precipitation Wind Pressure Humidity
    00:00 +16°C° 0 mm 2 mps 620 mmHg 86%
    01:00 +16°C° 0 mm 2 mps 620 mmHg 86%
    02:00 +16°C° 0 mm 1 mps 620 mmHg 86%
    03:00 +16°C° 0 mm 1 mps 620 mmHg 87%
    04:00 +15°C° 0 mm 1 mps 620 mmHg 87%
    05:00 +16°C° 0 mm 1 mps 620 mmHg 86%
    06:00 +18°C° 0 mm 1 mps 621 mmHg 85%
    07:00 +18°C° 0 mm 1 mps 622 mmHg 84%
    08:00 +20°C° 0 mm 1 mps 622 mmHg 76%
    09:00 +22°C° 0 mm 1 mps 623 mmHg 67%
    10:00 +24°C° 0 mm 1 mps 624 mmHg 59%
    11:00 +25°C° 0.1 mm 1 mps 623 mmHg 56%
    12:00 +26°C° 0.1 mm 1 mps 623 mmHg 52%
    13:00 +27°C° 0.1 mm 1 mps 622 mmHg 49%
    14:00 +27°C° 0.1 mm 1 mps 622 mmHg 51%
    15:00 +26°C° 0.1 mm 1 mps 621 mmHg 53%
    16:00 +26°C° 0.1 mm 1 mps 621 mmHg 54%
    17:00 +24°C° 0.2 mm 1 mps 620 mmHg 63%
    18:00 +22°C° 0.2 mm 1 mps 620 mmHg 72%
    19:00 +19°C° 0.2 mm 1 mps 620 mmHg 81%
    20:00 +19°C° 0.3 mm 1 mps 620 mmHg 83%
    21:00 +19°C° 0.3 mm 1 mps 620 mmHg 85%
    22:00 +18°C° 0.3 mm 1 mps 620 mmHg 88%
    23:00 +18°C° 0.1 mm 1 mps 620 mmHg 89%

    27 February, Monday

    Time Temperature Precipitation Wind Pressure Humidity
    00:00 +18°C° 0.1 mm 1 mps 620 mmHg 91%
    01:00 +18°C° 0.1 mm 1 mps 619 mmHg 92%
    02:00 +18°C° 0.1 mm 1 mps 619 mmHg 93%
    03:00 +16°C° 0.1 mm 1 mps 619 mmHg 93%
    04:00 +16°C° 0.1 mm 1 mps 619 mmHg 93%
    05:00 +18°C° 0 mm 1 mps 620 mmHg 92%
    06:00 +18°C° 0 mm 1 mps 620 mmHg 91%
    07:00 +19°C° 0 mm 1 mps 621 mmHg 90%
    08:00 +21°C° 0 mm 1 mps 621 mmHg 81%
    09:00 +23°C° 0 mm 1 mps 622 mmHg 73%
    10:00 +24°C° 0 mm 1 mps 623 mmHg 65%
    11:00 +25°C° 0.2 mm 1 mps 622 mmHg 61%
    12:00 +26°C° 0.2 mm 1 mps 622 mmHg 56%
    13:00 +27°C° 0.2 mm 1 mps 621 mmHg 52%
    14:00 +26°C° 0.5 mm 2 mps 621 mmHg 59%
    15:00 +25°C° 0.5 mm 2 mps 620 mmHg 65%
    16:00 +25°C° 0.5 mm 2 mps 620 mmHg 71%
    17:00 +23°C° 0.1 mm 2 mps 620 mmHg 78%
    18:00 +20°C° 0.1 mm 2 mps 620 mmHg 85%
    19:00 +19°C° 0.1 mm 2 mps 619 mmHg 92%
    20:00 +18°C° 0.1 mm 2 mps 620 mmHg 93%
    21:00 +18°C° 0.1 mm 2 mps 620 mmHg 94%
    22:00 +17°C° 0.1 mm 2 mps 620 mmHg 94%
    23:00 +18°C° 0.8 mm 1 mps 620 mmHg 94%
    Show more